Yoder, IN

4:59 PM EST on February 19, 2017 (GMT -0500)
Fort Wayne International

Weather History for KFWA - April, 2013

Change the Weather History Date:

Monday, April 1, 2013

  Actual Average Record
Temperature  
Mean Temperature 34 °F 44 °F  
Max Temperature 42 °F 55 °F 82 °F (2010)
Min Temperature 26 °F 34 °F 18 °F (1964)
Degree Days  
Heating Degree Days 31 21  
Month to date heating degree days 31 21  
Since 1 July heating degree days 5404 5445  
Cooling Degree Days 0 0  
Month to date cooling degree days 0 0  
Year to date cooling degree days 0 0  
Moisture  
Dew Point 20 °F    
Average Humidity 58    
Maximum Humidity 78    
Minimum Humidity 37    
Precipitation  
Precipitation 0.00 in 0.12 in 1.68 in (1959)
Month to date precipitation 0.00 0.12  
Year to date precipitation 7.63 7.13  
Snow  
Snow 0.00 in 0.10 in 2.00 in (1924)
Month to date snowfall 0.0 0.1  
Since 1 July snowfall 38.5 32.6  
Snow Depth 0.00 in    
Sea Level Pressure  
Sea Level Pressure 30.03 in    
Wind  
Wind Speed 11 mph (NW)    
Max Wind Speed 22 mph    
Max Gust Speed 29 mph    
Visibility 10 miles    
Events      
T = Trace of Precipitation, MM = Missing Value Source: NWS Daily Summary

Daily Weather History Graph

Daily Weather History Graph

Search for Another Location

Airport or City:

Trip Planner

Search our weather history database for the weather conditions in past years. The results will help you decide how hot, cold, wet, or windy it might be!

Date:

Astronomy

Apr. 01, 2013 Rise Set
Actual Time 7:23 AM EDT 8:05 PM EDT
Civil Twilight 6:56 AM EDT 8:33 PM EDT
Nautical Twilight 6:23 AM EDT 9:06 PM EDT
Astronomical Twilight 5:49 AM EDT 9:40 PM EDT
Moon 1:15 AM EDT (4/1) 11:07 AM EDT (4/1)
Length of Visible Light 13h 37m
Length of Day
12h 42m
Waning Gibbous, 67% of the Moon is Illuminated
Apr 1
Waning Gibbous
Apr 3
Last Quarter
Apr 10
New
Apr 18
First Quarter
Apr 25
Full

Hourly Weather History & Observations

Time (EDT) Temp. Windchill Dew Point Humidity Pressure Visibility Wind Dir Wind Speed Gust Speed Precip Events Conditions
12:54 AM 37.9 °F 32.1 °F 28.9 °F 70% 29.81 in 10.0 mi WNW 8.1 mph - N/A   Scattered Clouds
1:54 AM 37.9 °F 30.0 °F 28.9 °F 70% 29.83 in 10.0 mi WNW 12.7 mph - N/A   Mostly Cloudy
2:54 AM 36.0 °F 28.0 °F 28.0 °F 73% 29.84 in 10.0 mi WNW 11.5 mph - N/A   Scattered Clouds
3:54 AM 36.0 °F 28.5 °F 26.1 °F 67% 29.86 in 10.0 mi NW 10.4 mph - N/A   Scattered Clouds
4:54 AM 35.1 °F 30.1 °F 28.0 °F 76% 29.88 in 10.0 mi WNW 5.8 mph - N/A   Mostly Cloudy
5:54 AM 33.1 °F 25.5 °F 26.1 °F 75% 29.92 in 10.0 mi NNW 9.2 mph - N/A   Mostly Cloudy
6:54 AM 30.9 °F 23.5 °F 24.1 °F 76% 29.96 in 10.0 mi NNW 8.1 mph - N/A   Scattered Clouds
7:54 AM 30.9 °F 22.8 °F 19.9 °F 64% 30.00 in 10.0 mi NW 9.2 mph - N/A   Scattered Clouds
8:54 AM 33.1 °F 27.7 °F 19.9 °F 59% 30.03 in 10.0 mi NW 5.8 mph - N/A   Partly Cloudy
9:54 AM 34.0 °F 24.2 °F 19.9 °F 56% 30.04 in 10.0 mi North 15.0 mph 18.4 mph N/A   Mostly Cloudy
10:54 AM 35.1 °F 27.4 °F 21.0 °F 57% 30.06 in 10.0 mi NW 10.4 mph - N/A   Overcast
11:54 AM 37.0 °F 28.9 °F 19.9 °F 50% 30.07 in 10.0 mi WNW 12.7 mph - N/A   Mostly Cloudy
12:54 PM 37.9 °F 29.2 °F 21.0 °F 51% 30.07 in 10.0 mi West 15.0 mph - N/A   Mostly Cloudy
1:54 PM 39.9 °F 31.1 °F 19.0 °F 43% 30.08 in 10.0 mi WNW 17.3 mph 23.0 mph N/A   Scattered Clouds
2:54 PM 39.9 °F 30.8 °F 18.0 °F 41% 30.07 in 10.0 mi WNW 18.4 mph 23.0 mph N/A   Mostly Cloudy
3:54 PM 39.9 °F 31.1 °F 18.0 °F 41% 30.08 in 10.0 mi NW 17.3 mph 27.6 mph N/A   Mostly Cloudy
4:54 PM 41.0 °F 33.1 °F 18.0 °F 40% 30.09 in 10.0 mi WNW 15.0 mph 24.2 mph N/A   Mostly Cloudy
5:54 PM 39.0 °F 31.0 °F 15.1 °F 38% 30.09 in 10.0 mi WNW 13.8 mph 23.0 mph N/A   Scattered Clouds
6:54 PM 37.0 °F 28.9 °F 15.1 °F 41% 30.10 in 10.0 mi WNW 12.7 mph 19.6 mph N/A   Partly Cloudy
7:54 PM 35.1 °F 27.4 °F 16.0 °F 46% 30.11 in 10.0 mi NNW 10.4 mph - N/A   Partly Cloudy
8:54 PM 32.0 °F 24.2 °F 16.0 °F 52% 30.13 in 10.0 mi NNW 9.2 mph - N/A   Partly Cloudy
9:54 PM 30.9 °F 25.2 °F 16.0 °F 54% 30.14 in 10.0 mi NNW 5.8 mph - N/A   Partly Cloudy
10:54 PM 28.0 °F 22.8 °F 16.0 °F 61% 30.16 in 10.0 mi NNW 4.6 mph - N/A   Clear
11:54 PM 28.0 °F 24.2 °F 16.0 °F 61% 30.17 in 10.0 mi NW 3.5 mph - N/A   Partly Cloudy